SCP
-0 -0 -0 -0 -0 -0 -0 -0 -0 -0 -0 -0 -0 -0 -0 -0 -0 -0 -0 -0 -0 -0 -0 -0 -0 -0 -0 0 -0 -0 -0 -0 0 -0 -0 -0 0 0 0 0 0 0 0 0 0 0 0
-0 -0 -0 -0 -0 -0 -0 -0 -0 -0 -0 -0 -0 -0 -0 -0 -0 -0 -0 -0 -0 -0 -0 -0 -0 -0 -0 -0 0 -0 -0 -0 0 0 -0 0 0 0 0 0 0 0 0 0 0 0 0
-0 -0 -0 -0 -0 -0 -0 -0 -0 -0 -0 -0 -0 -0 -0 -0 -0 -0 -0 -0 -0 -0 -0 -0 -0 -0 -0 -0 -0 0 -0 -0 -0 -0 0 0 0 0 0 0 0 0 0 0 0 0 0
-0 -0 -0 -0 -0 -0 -0 -0 -0 -0 -0 -0 -0 -0 -0 -0 -0 -0 -0 -0 -0 -0 -0 -0 -0 0 -0 -0 0 -0 -0 0 0 -0 0 0 -0 0 0 0 0 0 0 0 0 0 0
-0 -0 -0 -0 -0 -0 -0 -0 -0 -0 -0 -0 -0 -0 -0 -0 -0 -0 -0 -0 -0 -0 -0 -0 -0 -0 0 -0 -0 -0 -0 -0 0 0 0 0 0 0 0 0 0 0 0 0 0 0 0
-0 -0 -0 -0 -0 -0 -0 -0 -0 -0 -0 -0 -0 -0 -0 -0 -0 -0 -0 -0 0 -0 -0 -0 -0 0 0 0 -0 -0 -0 -0 0 0 0 0 0 0 0 0 0 0 0 0 0 0 0
0 -0 -0 -0 -0 -0 -0 -0 -0 -0 -0 -0 -0 -0 -0 0 0 -0 -0 -0 0 0 0 0 0 0 0 0 -0 0 -0 0 0 0 0 0 0 0 0 0 0 0 0 0 0 0 0
0 0 -0 -0 -0 -0 -0 -0 -0 -0 -0 -0 -0 -0 0 0 -0 -0 -0 0 0 0 0 0 0 0 0 0 0 0 0 0 0 0 0 0 0 0 0 0 0 0 0 0 0 0 0
0 -0 -0 -0 -0 -0 -0 -0 -0 -0 -0 -0 -0 0 0 0 -0 -0 0 0 0 -0 0 0 0 0 0 0 0 0 0 0 0 0 0 0 0 0 0 0 0 0 0 0 0 0 0
0 -0 -0 -0 -0 -0 -0 -0 -0 -0 -0 -0 -0 -0 0 -0 0 0 0 0 -0 -0 0 0 0 0 0 0 0 0 0 0 0 0 0 0 0 0 0 0 0 0 0 0 0 0 0
0 -0 -0 -0 -0 -0 -0 -0 -0 -0 -0 -0 -0 -0 0 0 0 0 0 0 -0 -0 0 0 0 0 0 0 0 0 0 0 0 0 0 0 0 0 0 0 0 0 0 0 0 0 0
0 0 -0 -0 -0 -0 -0 -0 -0 -0 -0 -0 -0 -0 -0 0 0 0 -0 -0 -0 0 0 0 0 0 0 0 0 0 0 0 0 0 0 0 0 0 0 0 0 0 0 0 0 0 0
0 0 0 -0 -0 -0 -0 -0 -0 -0 -0 -0 -0 -0 -0 -0 0 -0 -0 0 0 0 0 0 0 0 0 0 0 0 0 0 0 0 0 0 0 0 0 0 0 0 0 0 0 0 0
0 0 -0 -0 -0 -0 -0 -0 -0 -0 -0 -0 0 -0 -0 0 -0 -0 -0 0 0 0 0 0 0 0 0 0 0 0 0 0 0 0 0 0 0 0 0 0 0 0 0 0 0 0 0
0 0 -0 -0 -0 -0 -0 -0 -0 -0 -0 -0 0 0 -0 -0 -0 -0 -0 0 0 0 0 0 0 0 0 0 0 0 0 0 0 0 0 0 0 0 0 -0 0 0 0 0 0 0 0
0 0 -0 -0 -0 -0 -0 -0 -0 -0 -0 -0 0 0 0 0 -0 -0 0 0 0 0 0 0 0 0 0 0 0 0 0 0 0 0 0 0 0 0 0 0 0 0 0 0 0 0 0
0 0 -0 -0 -0 -0 -0 -0 -0 -0 -0 0 0 0 0 -0 -0 0 0 0 0 0 0 0 0 0 0 0 0 0 0 0 0 0 0 0 0 0 0 0 0 0 0 0 0 0 0
0 0 0 -0 -0 -0 -0 -0 -0 -0 -0 -0 -0 0 0 0 0 0 0 0 0 0 0 0 0 0 0 0 0 0 0 0 0 0 0 0 0 0 0 0 0 0 0 0 1 0 0
0 0 0 0 0 0 -0 -0 -0 -0 -0 -0 0 0 0 -0 0 0 0 0 0 0 0 0 0 0 0 0 0 0 0 0 0 0 0 0 0 0 0 0 0 0 0 0 0 0 0
0 0 0 0 0 0 -0 -0 -0 -0 -0 -0 -0 0 0 0 0 0 0 0 0 0 0 0 0 0 0 0 0 0 0 0 0 0 0 0 0 0 0 0 0 0 0 0 0 0 0
0 0 0 0 0 0 0 -0 -0 -0 -0 -0 -0 0 0 0 0 0 0 0 0 0 0 0 0 0 0 0 0 0 0 0 0 0 0 0 0 0 0 0 0 0 0 0 0 0 0
0 0 0 0 0 0 0 0 -0 -0 -0 0 -0 0 0 0 0 0 0 0 0 0 0 0 0 0 0 0 0 0 0 0 0 0 0 0 0 0 0 0 0 0 0 0 0 0 0
0 0 0 0 0 0 0 0 0 0 0 0 0 0 0 0 0 0 0 0 0 0 0 0 0 0 0 0 0 0 0 0 0 0 0 0 0 0 0 0 0 0 0 0 0 0 0
0 0 0 0 0 0 0 0 0 0 0 0 0 0 0 0 0 0 0 0 0 0 0 0 0 0 0 0 0 0 0 0 0 0 0 0 0 0 0 0 0 0 0 0 0 0 0
0 0 0 0 0 0 0 0 0 0 0 0 0 0 0 0 0 0 0 0 0 0 0 0 0 0 0 0 0 0 0 0 0 0 0 0 0 0 0 0 0 0 0 0 0 0 0
0 0 0 0 0 0 0 0 0 0 0 -0 0 0 0 0 0 0 0 0 0 0 0 0 0 0 0 0 0 0 0 0 0 0 0 0 0 0 0 0 0 0 0 0 0 0 0
0 0 0 0 0 0 0 0 0 0 0 0 0 0 0 0 0 0 0 0 0 0 0 0 0 0 0 0 0 0 0 0 0 0 0 0 0 0 0 0 0 0 0 0 0 0 0
0 0 0 0 0 0 0 0 0 0 0 -0 0 0 0 0 0 0 0 0 0 0 0 0 0 0 0 0 0 0 0 0 0 0 0 0 0 0 0 0 0 0 -0 0 0 0 0
0 0 0 0 0 0 0 0 0 0 0 -0 0 0 0 0 0 0 -0 -0 -0 0 0 0 0 0 0 0 0 0 0 0 0 0 0 0 0 0 0 0 -0 0 0 0 0 0 0
Wind_Speed_500mb
57 56 55 53 50 46 41 36 28 22 19 19 20 20 20 22 25 30 31 27 24 21 22 22 14 13 10 17 21 8 17 20 22 24 25 18 12 9 7 10 11 8 7 6 8 5 2
57 56 54 53 51 48 44 39 33 26 18 17 18 19 21 23 25 26 25 23 19 16 16 19 21 24 13 25 12 16 18 16 20 22 24 20 15 15 12 8 6 5 2 7 6 7 3
59 57 54 52 52 49 46 42 36 31 22 13 13 15 18 20 21 20 19 16 13 10 9 10 12 16 14 17 15 10 9 10 17 19 24 16 12 5 2 11 3 1 16 13 7 5 5
59 58 56 53 53 52 50 45 40 34 27 14 8 10 13 16 16 14 13 11 7 3 3 5 6 14 14 17 11 7 5 6 11 15 18 14 13 14 7 5 8 5 10 10 10 6 13
59 60 58 56 53 52 50 48 44 37 29 19 5 6 10 11 10 8 7 4 5 7 3 1 5 5 16 10 6 2 1 3 5 6 8 12 6 7 5 6 12 5 12 13 12 2 13
59 59 60 58 56 54 51 49 46 41 31 21 9 7 12 11 8 5 0 5 5 9 6 1 6 8 11 8 3 2 5 6 6 9 9 5 3 10 6 11 11 17 19 17 21 13 20
59 60 60 61 59 56 54 52 49 43 35 22 11 4 14 15 9 2 3 2 3 4 3 3 5 2 8 2 4 3 6 8 9 10 12 2 19 7 12 7 13 18 22 24 22 24 21
60 60 60 61 61 60 57 55 53 48 40 24 11 0 14 16 9 3 9 5 5 1 5 3 3 3 4 5 6 9 4 8 9 15 6 15 14 4 9 13 17 23 27 27 24 11 27
59 60 60 61 62 62 59 58 58 55 45 26 11 1 15 20 13 12 12 8 8 4 5 11 10 10 7 5 5 9 13 10 14 15 12 18 25 5 13 19 21 27 22 25 29 31 36
58 60 61 61 62 62 62 59 60 59 46 28 12 4 18 22 13 10 4 8 9 2 12 15 9 5 3 5 7 12 12 10 13 18 18 17 9 10 19 26 13 28 16 15 26 31 30
56 59 61 60 61 61 62 60 60 59 42 29 17 11 21 22 11 6 2 13 4 2 9 9 10 5 4 3 6 10 11 9 18 20 9 5 14 17 22 12 7 24 12 27 32 33 36
54 58 60 59 60 60 60 60 58 56 40 27 19 17 20 15 8 3 8 3 3 11 5 11 6 2 8 3 5 14 13 9 9 10 8 12 9 13 9 0 6 15 27 31 22 18 19
52 57 59 60 61 61 61 59 55 51 34 24 25 27 22 15 2 7 3 8 10 10 6 8 3 2 2 5 0 10 13 10 10 11 8 21 6 6 6 14 12 13 21 11 11 12 21
50 55 57 59 61 62 62 59 55 46 22 19 21 18 14 9 7 5 6 10 12 5 4 5 4 3 7 9 2 14 15 7 4 14 17 11 6 1 5 17 24 26 15 10 12 18 32
48 51 54 59 62 62 61 58 53 46 28 1 7 10 18 17 12 3 11 9 7 4 4 6 8 9 7 3 11 11 13 7 6 7 11 16 8 6 23 29 13 3 13 12 16 31 27
43 47 52 57 60 60 61 59 52 46 34 6 7 4 18 18 15 2 9 7 6 6 8 5 8 3 9 10 11 12 10 7 7 4 3 9 18 21 9 15 25 20 10 11 8 10 26
39 44 50 55 57 57 58 58 56 49 42 16 6 6 18 15 11 4 3 8 7 9 10 6 6 10 9 14 11 16 7 6 2 3 9 16 7 13 17 17 27 13 20 20 18 21 30
35 41 48 52 54 55 55 54 56 53 45 23 4 4 25 10 2 4 6 5 4 5 8 3 6 7 9 6 13 12 11 5 0 9 22 12 12 29 39 39 26 22 29 31 21 37 35
33 38 44 48 50 51 51 52 51 49 48 32 6 6 24 9 3 7 6 5 5 6 8 5 1 4 3 11 8 11 14 3 10 19 5 10 8 15 19 15 8 13 16 22 35 37 48
31 35 40 43 46 47 47 47 47 44 40 23 6 1 12 23 13 8 5 5 1 6 3 6 6 4 8 10 9 14 20 12 5 14 21 18 22 28 27 39 37 43 45 42 41 24 41
27 29 33 38 42 44 44 42 42 40 33 13 12 8 6 6 12 9 5 1 5 5 1 5 6 4 7 10 22 27 14 20 27 14 7 8 25 31 36 40 42 47 47 42 43 47 42
26 26 29 32 36 39 39 37 40 38 32 30 9 7 3 3 1 7 0 4 5 5 5 1 8 2 14 21 25 36 32 23 18 12 5 20 23 28 40 39 37 38 43 47 31 32 37
24 23 26 31 33 35 34 33 39 41 36 17 15 11 4 4 1 7 4 5 7 10 5 7 10 19 23 17 21 33 35 38 39 33 33 26 18 20 30 31 41 37 13 28 35 30 26
27 24 24 28 29 29 27 31 36 38 40 29 24 9 8 3 6 7 5 7 12 10 14 14 21 16 9 32 43 42 39 31 30 26 25 17 16 13 24 36 29 27 27 16 22 30 35
31 28 25 26 25 24 22 25 29 30 34 32 29 12 7 6 6 5 6 10 14 12 16 16 11 6 22 25 16 12 10 13 13 3 6 18 13 15 18 26 37 20 12 1 9 38 49
31 30 25 25 24 21 17 21 25 25 29 31 26 21 5 11 6 3 10 8 14 9 8 6 6 10 10 10 7 10 7 12 6 5 11 12 22 17 27 26 19 26 20 24 53 35 16
37 31 27 28 27 18 20 19 21 24 26 27 25 23 8 9 5 5 6 10 8 7 9 6 5 6 3 6 10 10 9 4 8 17 10 19 23 23 21 29 27 16 39 54 19 17 68
38 33 30 30 27 20 20 18 23 22 23 25 21 21 12 8 18 11 11 10 10 9 9 10 11 8 9 6 6 6 10 8 12 21 23 20 12 14 14 22 13 39 45 4 22 50 65
39 37 33 31 23 17 18 16 22 23 21 23 11 24 23 9 13 28 27 26 24 19 14 4 8 8 7 6 6 5 12 11 20 14 9 9 10 13 12 17 57 51 52 52 57 64 68
Wind_Direction_500mb
44 44 42 41 42 41 41 41 41 40 42 44 45 55 70 88 106 118 123 119 110 94 82 72 98 146 142 102 97 84 77 61 45 48 56 63 79 79 70 106 95 55 84 94 101 105 179
42 41 40 39 39 37 37 37 35 35 35 41 47 62 82 98 109 120 125 124 114 98 89 75 94 103 103 94 110 104 99 55 49 53 52 60 68 85 92 105 353 49 90 140 99 61 148
41 40 38 38 37 34 33 33 33 32 33 41 54 67 91 103 112 122 131 133 122 99 98 87 90 107 89 102 122 110 81 62 56 51 47 50 64 37 145 143 88 213 239 187 165 350 141
40 40 39 37 35 33 30 29 29 28 30 39 62 80 103 107 110 124 143 155 162 144 96 100 112 133 100 130 130 93 71 51 43 44 45 60 79 80 34 117 178 277 246 291 87 304 129
40 39 39 37 34 30 27 25 25 24 25 30 71 124 134 123 111 107 127 139 238 243 260 306 110 174 128 141 121 143 48 14 353 8 25 42 65 46 192 248 192 145 331 312 316 137 307
37 37 37 35 32 28 24 20 19 17 18 18 28 176 172 159 143 121 113 271 338 217 234 71 156 188 156 126 170 265 302 315 300 298 247 285 261 230 179 336 359 326 316 308 302 342 314
33 33 32 30 28 26 23 18 14 10 8 7 7 192 191 187 185 220 319 94 199 174 213 301 125 19 115 47 58 55 322 289 283 266 291 300 288 320 347 317 320 308 297 291 297 327 295
29 27 27 26 23 22 19 15 9 5 1 355 347 243 188 183 177 130 76 121 70 106 147 47 175 182 199 131 165 28 358 272 269 288 268 239 261 337 298 282 276 294 289 287 309 277 309
26 24 23 22 20 20 17 13 7 2 3 358 345 192 172 170 154 131 104 85 35 72 204 104 115 95 81 142 71 31 2 322 289 286 268 287 303 357 268 276 272 288 286 297 310 310 287
24 21 19 18 17 18 18 12 8 3 7 12 18 128 161 158 143 139 82 8 340 145 206 143 155 87 11 190 145 30 5 318 262 305 327 282 18 284 276 283 294 294 13 302 287 294 295
19 18 15 15 13 14 17 13 10 6 13 20 43 104 154 156 146 145 231 348 100 192 217 117 112 107 77 254 351 33 3 308 296 311 269 360 305 305 288 338 312 305 323 295 291 288 288
14 13 12 13 12 10 14 15 11 9 16 29 60 95 139 140 119 188 298 305 151 226 173 138 127 186 220 54 74 351 357 339 292 284 257 296 304 276 330 346 300 317 285 285 282 269 259
10 10 10 11 12 9 10 14 13 14 20 46 81 88 101 116 165 312 293 165 222 267 138 133 133 329 22 1 102 352 345 12 2 321 320 313 178 151 261 271 276 262 303 308 277 219 273
7 7 9 9 9 7 7 10 14 17 26 70 88 85 70 50 12 359 161 219 247 66 49 89 317 244 269 345 125 324 314 321 105 336 308 337 247 96 143 304 313 290 293 262 289 302 304
5 5 8 7 5 4 4 5 10 12 17 140 112 59 30 7 356 348 228 237 40 53 24 335 271 261 162 211 315 319 331 315 358 353 344 314 261 261 275 296 266 88 249 358 299 277 270
2 3 4 4 2 2 2 3 6 8 6 323 208 297 360 360 1 28 246 64 110 55 335 271 285 290 297 354 303 333 318 118 330 246 327 321 293 285 334 280 241 252 344 247 210 276 287
357 360 0 2 1 2 2 1 3 8 7 1 204 234 352 350 6 260 11 66 105 51 360 309 307 284 292 313 296 316 289 318 288 198 290 298 286 276 268 251 284 236 226 224 287 275 272
352 356 357 359 0 1 2 2 3 6 9 20 47 238 352 12 248 38 62 30 345 354 9 320 280 291 283 307 296 293 283 272 68 306 304 352 286 284 288 287 297 290 280 285 263 275 269
348 351 354 356 358 359 0 2 4 5 8 12 36 16 16 34 37 74 98 115 48 11 29 0 277 321 330 294 298 267 288 333 302 284 316 357 287 306 296 156 188 235 270 263 270 280 276
342 345 350 353 355 355 356 0 4 6 8 13 14 300 33 49 54 2 23 54 31 32 96 345 324 289 286 277 254 281 286 306 298 283 325 290 256 249 270 291 304 295 292 287 283 273 275
334 340 346 350 352 354 356 360 5 9 15 31 31 61 5 18 60 30 329 334 338 10 331 311 184 49 357 290 301 277 290 300 299 298 238 285 273 278 280 291 294 285 288 292 291 292 288
325 333 339 347 350 354 359 5 9 15 21 51 38 343 330 102 347 310 54 36 332 353 283 142 271 273 296 285 285 291 301 293 281 273 274 300 282 293 287 284 287 299 290 287 303 315 308
318 324 332 340 346 350 360 8 10 13 26 47 30 17 328 123 189 281 56 342 319 337 147 276 307 306 296 315 307 287 282 278 273 279 288 281 277 303 287 307 309 291 327 311 312 306 312
314 310 318 331 342 349 359 11 15 18 25 35 27 24 313 84 314 358 273 281 298 305 286 285 293 277 356 310 299 281 263 263 262 261 241 266 280 279 293 301 298 345 339 340 325 309 312
298 302 306 326 332 342 352 2 8 13 18 20 22 34 349 307 314 204 268 291 297 281 269 288 298 276 312 305 288 291 191 205 183 297 233 224 290 298 281 301 291 297 13 77 286 302 300
280 289 295 315 314 330 342 347 354 358 6 11 15 21 359 307 143 264 297 304 312 325 242 239 297 314 315 286 278 300 319 334 298 301 172 218 245 257 284 292 302 317 24 341 325 296 18
266 274 279 295 298 303 324 333 334 339 352 5 5 7 10 296 259 227 279 326 315 299 278 282 350 313 276 294 291 316 320 336 287 309 322 306 320 290 294 296 295 25 350 331 290 324 324
257 257 265 279 284 297 307 312 318 319 339 356 343 355 5 292 282 244 235 264 268 264 298 14 271 165 247 290 312 347 289 328 294 299 294 301 300 303 303 288 293 338 335 292 296 307 302
252 255 255 271 268 287 294 305 308 308 327 343 336 340 333 279 268 277 269 254 243 253 285 267 333 313 341 292 290 319 299 287 282 292 318 284 299 295 284 291 305 325 313 310 310 309 313
Wind_Speed_850mb
57 56 55 53 50 46 41 36 28 22 19 19 20 20 20 22 25 30 31 27 24 21 22 22 14 13 10 17 21 8 17 20 22 24 25 18 12 9 7 10 11 8 7 6 8 5 2
57 56 54 53 51 48 44 39 33 26 18 17 18 19 21 23 25 26 25 23 19 16 16 19 21 24 13 25 12 16 18 16 20 22 24 20 15 15 12 8 6 5 2 7 6 7 3
59 57 54 52 52 49 46 42 36 31 22 13 13 15 18 20 21 20 19 16 13 10 9 10 12 16 14 17 15 10 9 10 17 19 24 16 12 5 2 11 3 1 16 13 7 5 5
59 58 56 53 53 52 50 45 40 34 27 14 8 10 13 16 16 14 13 11 7 3 3 5 6 14 14 17 11 7 5 6 11 15 18 14 13 14 7 5 8 5 10 10 10 6 13
59 60 58 56 53 52 50 48 44 37 29 19 5 6 10 11 10 8 7 4 5 7 3 1 5 5 16 10 6 2 1 3 5 6 8 12 6 7 5 6 12 5 12 13 12 2 13
59 59 60 58 56 54 51 49 46 41 31 21 9 7 12 11 8 5 0 5 5 9 6 1 6 8 11 8 3 2 5 6 6 9 9 5 3 10 6 11 11 17 19 17 21 13 20
59 60 60 61 59 56 54 52 49 43 35 22 11 4 14 15 9 2 3 2 3 4 3 3 5 2 8 2 4 3 6 8 9 10 12 2 19 7 12 7 13 18 22 24 22 24 21
60 60 60 61 61 60 57 55 53 48 40 24 11 0 14 16 9 3 9 5 5 1 5 3 3 3 4 5 6 9 4 8 9 15 6 15 14 4 9 13 17 23 27 27 24 11 27
59 60 60 61 62 62 59 58 58 55 45 26 11 1 15 20 13 12 12 8 8 4 5 11 10 10 7 5 5 9 13 10 14 15 12 18 25 5 13 19 21 27 22 25 29 31 36
58 60 61 61 62 62 62 59 60 59 46 28 12 4 18 22 13 10 4 8 9 2 12 15 9 5 3 5 7 12 12 10 13 18 18 17 9 10 19 26 13 28 16 15 26 31 30
56 59 61 60 61 61 62 60 60 59 42 29 17 11 21 22 11 6 2 13 4 2 9 9 10 5 4 3 6 10 11 9 18 20 9 5 14 17 22 12 7 24 12 27 32 33 36
54 58 60 59 60 60 60 60 58 56 40 27 19 17 20 15 8 3 8 3 3 11 5 11 6 2 8 3 5 14 13 9 9 10 8 12 9 13 9 0 6 15 27 31 22 18 19
52 57 59 60 61 61 61 59 55 51 34 24 25 27 22 15 2 7 3 8 10 10 6 8 3 2 2 5 0 10 13 10 10 11 8 21 6 6 6 14 12 13 21 11 11 12 21
50 55 57 59 61 62 62 59 55 46 22 19 21 18 14 9 7 5 6 10 12 5 4 5 4 3 7 9 2 14 15 7 4 14 17 11 6 1 5 17 24 26 15 10 12 18 32
48 51 54 59 62 62 61 58 53 46 28 1 7 10 18 17 12 3 11 9 7 4 4 6 8 9 7 3 11 11 13 7 6 7 11 16 8 6 23 29 13 3 13 12 16 31 27
43 47 52 57 60 60 61 59 52 46 34 6 7 4 18 18 15 2 9 7 6 6 8 5 8 3 9 10 11 12 10 7 7 4 3 9 18 21 9 15 25 20 10 11 8 10 26
39 44 50 55 57 57 58 58 56 49 42 16 6 6 18 15 11 4 3 8 7 9 10 6 6 10 9 14 11 16 7 6 2 3 9 16 7 13 17 17 27 13 20 20 18 21 30
35 41 48 52 54 55 55 54 56 53 45 23 4 4 25 10 2 4 6 5 4 5 8 3 6 7 9 6 13 12 11 5 0 9 22 12 12 29 39 39 26 22 29 31 21 37 35
33 38 44 48 50 51 51 52 51 49 48 32 6 6 24 9 3 7 6 5 5 6 8 5 1 4 3 11 8 11 14 3 10 19 5 10 8 15 19 15 8 13 16 22 35 37 48
31 35 40 43 46 47 47 47 47 44 40 23 6 1 12 23 13 8 5 5 1 6 3 6 6 4 8 10 9 14 20 12 5 14 21 18 22 28 27 39 37 43 45 42 41 24 41
27 29 33 38 42 44 44 42 42 40 33 13 12 8 6 6 12 9 5 1 5 5 1 5 6 4 7 10 22 27 14 20 27 14 7 8 25 31 36 40 42 47 47 42 43 47 42
26 26 29 32 36 39 39 37 40 38 32 30 9 7 3 3 1 7 0 4 5 5 5 1 8 2 14 21 25 36 32 23 18 12 5 20 23 28 40 39 37 38 43 47 31 32 37
24 23 26 31 33 35 34 33 39 41 36 17 15 11 4 4 1 7 4 5 7 10 5 7 10 19 23 17 21 33 35 38 39 33 33 26 18 20 30 31 41 37 13 28 35 30 26
27 24 24 28 29 29 27 31 36 38 40 29 24 9 8 3 6 7 5 7 12 10 14 14 21 16 9 32 43 42 39 31 30 26 25 17 16 13 24 36 29 27 27 16 22 30 35
31 28 25 26 25 24 22 25 29 30 34 32 29 12 7 6 6 5 6 10 14 12 16 16 11 6 22 25 16 12 10 13 13 3 6 18 13 15 18 26 37 20 12 1 9 38 49
31 30 25 25 24 21 17 21 25 25 29 31 26 21 5 11 6 3 10 8 14 9 8 6 6 10 10 10 7 10 7 12 6 5 11 12 22 17 27 26 19 26 20 24 53 35 16
37 31 27 28 27 18 20 19 21 24 26 27 25 23 8 9 5 5 6 10 8 7 9 6 5 6 3 6 10 10 9 4 8 17 10 19 23 23 21 29 27 16 39 54 19 17 68
38 33 30 30 27 20 20 18 23 22 23 25 21 21 12 8 18 11 11 10 10 9 9 10 11 8 9 6 6 6 10 8 12 21 23 20 12 14 14 22 13 39 45 4 22 50 65
39 37 33 31 23 17 18 16 22 23 21 23 11 24 23 9 13 28 27 26 24 19 14 4 8 8 7 6 6 5 12 11 20 14 9 9 10 13 12 17 57 51 52 52 57 64 68
Wind_Direction_850mb
44 44 42 41 42 41 41 41 41 40 42 44 45 55 70 88 106 118 123 119 110 94 82 72 98 146 142 102 97 84 77 61 45 48 56 63 79 79 70 106 95 55 84 94 101 105 179
42 41 40 39 39 37 37 37 35 35 35 41 47 62 82 98 109 120 125 124 114 98 89 75 94 103 103 94 110 104 99 55 49 53 52 60 68 85 92 105 353 49 90 140 99 61 148
41 40 38 38 37 34 33 33 33 32 33 41 54 67 91 103 112 122 131 133 122 99 98 87 90 107 89 102 122 110 81 62 56 51 47 50 64 37 145 143 88 213 239 187 165 350 141
40 40 39 37 35 33 30 29 29 28 30 39 62 80 103 107 110 124 143 155 162 144 96 100 112 133 100 130 130 93 71 51 43 44 45 60 79 80 34 117 178 277 246 291 87 304 129
40 39 39 37 34 30 27 25 25 24 25 30 71 124 134 123 111 107 127 139 238 243 260 306 110 174 128 141 121 143 48 14 353 8 25 42 65 46 192 248 192 145 331 312 316 137 307
37 37 37 35 32 28 24 20 19 17 18 18 28 176 172 159 143 121 113 271 338 217 234 71 156 188 156 126 170 265 302 315 300 298 247 285 261 230 179 336 359 326 316 308 302 342 314
33 33 32 30 28 26 23 18 14 10 8 7 7 192 191 187 185 220 319 94 199 174 213 301 125 19 115 47 58 55 322 289 283 266 291 300 288 320 347 317 320 308 297 291 297 327 295
29 27 27 26 23 22 19 15 9 5 1 355 347 243 188 183 177 130 76 121 70 106 147 47 175 182 199 131 165 28 358 272 269 288 268 239 261 337 298 282 276 294 289 287 309 277 309
26 24 23 22 20 20 17 13 7 2 3 358 345 192 172 170 154 131 104 85 35 72 204 104 115 95 81 142 71 31 2 322 289 286 268 287 303 357 268 276 272 288 286 297 310 310 287
24 21 19 18 17 18 18 12 8 3 7 12 18 128 161 158 143 139 82 8 340 145 206 143 155 87 11 190 145 30 5 318 262 305 327 282 18 284 276 283 294 294 13 302 287 294 295
19 18 15 15 13 14 17 13 10 6 13 20 43 104 154 156 146 145 231 348 100 192 217 117 112 107 77 254 351 33 3 308 296 311 269 360 305 305 288 338 312 305 323 295 291 288 288
14 13 12 13 12 10 14 15 11 9 16 29 60 95 139 140 119 188 298 305 151 226 173 138 127 186 220 54 74 351 357 339 292 284 257 296 304 276 330 346 300 317 285 285 282 269 259
10 10 10 11 12 9 10 14 13 14 20 46 81 88 101 116 165 312 293 165 222 267 138 133 133 329 22 1 102 352 345 12 2 321 320 313 178 151 261 271 276 262 303 308 277 219 273
7 7 9 9 9 7 7 10 14 17 26 70 88 85 70 50 12 359 161 219 247 66 49 89 317 244 269 345 125 324 314 321 105 336 308 337 247 96 143 304 313 290 293 262 289 302 304
5 5 8 7 5 4 4 5 10 12 17 140 112 59 30 7 356 348 228 237 40 53 24 335 271 261 162 211 315 319 331 315 358 353 344 314 261 261 275 296 266 88 249 358 299 277 270
2 3 4 4 2 2 2 3 6 8 6 323 208 297 360 360 1 28 246 64 110 55 335 271 285 290 297 354 303 333 318 118 330 246 327 321 293 285 334 280 241 252 344 247 210 276 287
357 360 0 2 1 2 2 1 3 8 7 1 204 234 352 350 6 260 11 66 105 51 360 309 307 284 292 313 296 316 289 318 288 198 290 298 286 276 268 251 284 236 226 224 287 275 272
352 356 357 359 0 1 2 2 3 6 9 20 47 238 352 12 248 38 62 30 345 354 9 320 280 291 283 307 296 293 283 272 68 306 304 352 286 284 288 287 297 290 280 285 263 275 269
348 351 354 356 358 359 0 2 4 5 8 12 36 16 16 34 37 74 98 115 48 11 29 0 277 321 330 294 298 267 288 333 302 284 316 357 287 306 296 156 188 235 270 263 270 280 276
342 345 350 353 355 355 356 0 4 6 8 13 14 300 33 49 54 2 23 54 31 32 96 345 324 289 286 277 254 281 286 306 298 283 325 290 256 249 270 291 304 295 292 287 283 273 275
334 340 346 350 352 354 356 360 5 9 15 31 31 61 5 18 60 30 329 334 338 10 331 311 184 49 357 290 301 277 290 300 299 298 238 285 273 278 280 291 294 285 288 292 291 292 288
325 333 339 347 350 354 359 5 9 15 21 51 38 343 330 102 347 310 54 36 332 353 283 142 271 273 296 285 285 291 301 293 281 273 274 300 282 293 287 284 287 299 290 287 303 315 308
318 324 332 340 346 350 360 8 10 13 26 47 30 17 328 123 189 281 56 342 319 337 147 276 307 306 296 315 307 287 282 278 273 279 288 281 277 303 287 307 309 291 327 311 312 306 312
314 310 318 331 342 349 359 11 15 18 25 35 27 24 313 84 314 358 273 281 298 305 286 285 293 277 356 310 299 281 263 263 262 261 241 266 280 279 293 301 298 345 339 340 325 309 312
298 302 306 326 332 342 352 2 8 13 18 20 22 34 349 307 314 204 268 291 297 281 269 288 298 276 312 305 288 291 191 205 183 297 233 224 290 298 281 301 291 297 13 77 286 302 300
280 289 295 315 314 330 342 347 354 358 6 11 15 21 359 307 143 264 297 304 312 325 242 239 297 314 315 286 278 300 319 334 298 301 172 218 245 257 284 292 302 317 24 341 325 296 18
266 274 279 295 298 303 324 333 334 339 352 5 5 7 10 296 259 227 279 326 315 299 278 282 350 313 276 294 291 316 320 336 287 309 322 306 320 290 294 296 295 25 350 331 290 324 324
257 257 265 279 284 297 307 312 318 319 339 356 343 355 5 292 282 244 235 264 268 264 298 14 271 165 247 290 312 347 289 328 294 299 294 301 300 303 303 288 293 338 335 292 296 307 302
252 255 255 271 268 287 294 305 308 308 327 343 336 340 333 279 268 277 269 254 243 253 285 267 333 313 341 292 290 319 299 287 282 292 318 284 299 295 284 291 305 325 313 310 310 309 313